TimeCDT,TemperatureF,Dew PointF,Humidity,Sea Level PressureIn,VisibilityMPH,Wind Direction,Wind SpeedMPH,Gust SpeedMPH,PrecipitationIn,Events,Conditions,WindDirDegrees,DateUTC
12:15 AM,62.6,59.0,88,30.08,5.0,NE,24.2,31.1,0.37,Thunderstorm,Thunderstorm,40,2013-06-17 05:15:00
12:35 AM,62.6,59.0,88,30.08,10.0,NE,20.7,27.6,0.42,,Overcast,40,2013-06-17 05:35:00
12:55 AM,62.6,59.0,88,30.05,9.0,NE,21.9,26.5,0.47,,Overcast,50,2013-06-17 05:55:00
1:15 AM,62.6,59.0,88,30.02,10.0,NE,23.0,32.2,0.07,,Overcast,50,2013-06-17 06:15:00
1:35 AM,62.6,59.0,88,29.98,10.0,ENE,24.2,32.2,0.13,,Overcast,60,2013-06-17 06:35:00
1:55 AM,62.6,57.2,82,29.93,10.0,ENE,28.8,39.1,0.15,,Mostly Cloudy,60,2013-06-17 06:55:00
2:15 AM,64.4,59.0,83,29.90,10.0,ENE,20.7,28.8,N/A,,Partly Cloudy,60,2013-06-17 07:15:00
2:35 AM,64.4,57.2,77,29.83,10.0,ENE,27.6,32.2,N/A,,Partly Cloudy,70,2013-06-17 07:35:00
2:55 AM,66.2,57.2,73,29.85,10.0,ENE,11.5,32.2,N/A,,Clear,70,2013-06-17 07:55:00
3:15 AM,66.2,57.2,73,29.87,10.0,East,12.7,-,N/A,,Clear,90,2013-06-17 08:15:00
3:35 AM,66.2,57.2,73,29.90,10.0,East,9.2,-,N/A,,Clear,90,2013-06-17 08:35:00
3:55 AM,66.2,57.2,73,29.92,10.0,Calm,Calm,-,N/A,,Clear,0,2013-06-17 08:55:00
4:15 AM,64.4,57.2,77,29.94,10.0,Calm,Calm,-,N/A,,Clear,0,2013-06-17 09:15:00
4:35 AM,66.2,57.2,73,29.94,10.0,ESE,9.2,-,N/A,,Clear,110,2013-06-17 09:35:00
4:55 AM,66.2,57.2,73,29.96,10.0,WNW,5.8,-,N/A,,Clear,300,2013-06-17 09:55:00
5:15 AM,64.4,57.2,77,29.96,10.0,WNW,6.9,-,N/A,,Clear,300,2013-06-17 10:15:00
5:35 AM,62.6,57.2,82,29.97,10.0,WNW,10.4,-,N/A,,Clear,300,2013-06-17 10:35:00
5:55 AM,62.6,57.2,82,29.99,10.0,NW,8.1,-,N/A,,Clear,320,2013-06-17 10:55:00
6:15 AM,62.6,57.2,82,30.00,10.0,NNW,8.1,-,N/A,,Clear,330,2013-06-17 11:15:00
6:35 AM,62.6,57.2,82,30.00,10.0,NW,9.2,-,N/A,,Clear,320,2013-06-17 11:35:00
6:55 AM,62.6,57.2,82,30.01,10.0,North,9.2,-,N/A,,Clear,360,2013-06-17 11:55:00
7:15 AM,62.6,57.2,82,30.01,10.0,NNW,12.7,-,N/A,,Clear,330,2013-06-17 12:15:00
7:35 AM,62.6,57.2,82,30.00,10.0,NW,11.5,-,N/A,,Clear,320,2013-06-17 12:35:00
7:55 AM,64.4,59.0,83,30.01,10.0,NNW,10.4,-,N/A,,Clear,330,2013-06-17 12:55:00
8:15 AM,64.4,59.0,83,30.02,10.0,NNW,11.5,-,N/A,,Clear,340,2013-06-17 13:15:00
8:35 AM,66.2,60.8,83,30.03,10.0,NNW,12.7,-,N/A,,Clear,340,2013-06-17 13:35:00
8:55 AM,66.2,60.8,83,30.04,10.0,NNW,11.5,-,N/A,,Clear,340,2013-06-17 13:55:00
9:15 AM,69.8,60.8,73,30.04,10.0,NNW,12.7,-,N/A,,Clear,340,2013-06-17 14:15:00
9:35 AM,69.8,60.8,73,30.05,10.0,North,17.3,-,N/A,,Clear,360,2013-06-17 14:35:00
9:55 AM,71.6,60.8,69,30.06,10.0,North,17.3,20.7,N/A,,Mostly Cloudy,10,2013-06-17 14:55:00
10:15 AM,71.6,60.8,69,30.06,10.0,North,16.1,-,N/A,,Overcast,360,2013-06-17 15:15:00
10:35 AM,73.4,62.6,69,30.06,10.0,North,13.8,-,N/A,,Mostly Cloudy,10,2013-06-17 15:35:00
10:55 AM,73.4,64.4,73,30.06,10.0,North,13.8,-,N/A,,Partly Cloudy,360,2013-06-17 15:55:00
11:15 AM,75.2,64.4,69,30.05,10.0,North,10.4,18.4,N/A,,Clear,10,2013-06-17 16:15:00
11:35 AM,77.0,64.4,65,30.05,10.0,North,10.4,16.1,N/A,,Partly Cloudy,350,2013-06-17 16:35:00
11:55 AM,78.8,64.4,61,30.05,10.0,NNE,16.1,-,N/A,,Scattered Clouds,20,2013-06-17 16:55:00
12:15 PM,78.8,64.4,61,30.04,10.0,NNE,11.5,-,N/A,,Mostly Cloudy,30,2013-06-17 17:15:00
12:35 PM,78.8,64.4,61,30.04,10.0,NNE,15.0,-,N/A,,Scattered Clouds,20,2013-06-17 17:35:00
12:55 PM,80.6,64.4,58,30.04,10.0,NNE,9.2,-,N/A,,Partly Cloudy,30,2013-06-17 17:55:00
1:15 PM,80.6,64.4,58,30.04,10.0,NNE,13.8,-,N/A,,Mostly Cloudy,20,2013-06-17 18:15:00
1:35 PM,82.4,62.6,51,30.03,10.0,NNE,9.2,-,N/A,,Scattered Clouds,20,2013-06-17 18:35:00
1:55 PM,82.4,62.6,51,30.02,10.0,North,12.7,-,N/A,,Scattered Clouds,10,2013-06-17 18:55:00
2:15 PM,82.4,62.6,51,30.02,10.0,NNE,12.7,16.1,N/A,,Scattered Clouds,30,2013-06-17 19:15:00
2:35 PM,82.4,60.8,48,30.01,10.0,NNE,12.7,18.4,N/A,,Scattered Clouds,20,2013-06-17 19:35:00
2:55 PM,82.4,60.8,48,30.01,10.0,NE,12.7,17.3,N/A,,Scattered Clouds,40,2013-06-17 19:55:00
3:15 PM,82.4,62.6,51,30.00,10.0,NE,9.2,18.4,N/A,,Scattered Clouds,50,2013-06-17 20:15:00
3:35 PM,84.2,62.6,48,30.00,10.0,NE,9.2,17.3,N/A,,Partly Cloudy,50,2013-06-17 20:35:00
3:55 PM,84.2,62.6,48,30.00,10.0,NE,13.8,19.6,N/A,,Partly Cloudy,50,2013-06-17 20:55:00
4:15 PM,84.2,62.6,48,29.99,10.0,NE,12.7,18.4,N/A,,Scattered Clouds,50,2013-06-17 21:15:00
4:35 PM,82.4,62.6,51,29.99,10.0,NE,13.8,19.6,N/A,,Scattered Clouds,40,2013-06-17 21:35:00
4:55 PM,84.2,62.6,48,29.98,10.0,NNE,15.0,21.9,N/A,,Scattered Clouds,30,2013-06-17 21:55:00
5:15 PM,84.2,62.6,48,29.98,10.0,ENE,13.8,19.6,N/A,,Partly Cloudy,70,2013-06-17 22:15:00
5:35 PM,84.2,60.8,45,29.98,10.0,ENE,11.5,17.3,N/A,,Partly Cloudy,60,2013-06-17 22:35:00
5:55 PM,84.2,62.6,48,29.98,10.0,ENE,9.2,-,N/A,,Partly Cloudy,70,2013-06-17 22:55:00
6:15 PM,84.2,62.6,48,29.97,10.0,ENE,11.5,-,N/A,,Partly Cloudy,60,2013-06-17 23:15:00
6:35 PM,84.2,62.6,48,29.97,10.0,ENE,11.5,18.4,N/A,,Scattered Clouds,60,2013-06-17 23:35:00
6:55 PM,82.4,62.6,51,29.97,10.0,ENE,12.7,16.1,N/A,,Partly Cloudy,60,2013-06-17 23:55:00
7:15 PM,82.4,62.6,51,29.98,10.0,NE,10.4,-,N/A,,Partly Cloudy,50,2013-06-18 00:15:00
7:35 PM,82.4,62.6,51,29.99,10.0,East,9.2,-,N/A,,Scattered Clouds,80,2013-06-18 00:35:00
7:55 PM,80.6,62.6,54,29.99,10.0,East,8.1,-,N/A,,Mostly Cloudy,90,2013-06-18 00:55:00
8:15 PM,80.6,62.6,54,29.99,10.0,East,5.8,-,N/A,,Partly Cloudy,90,2013-06-18 01:15:00
8:35 PM,78.8,62.6,57,30.00,10.0,ESE,4.6,-,N/A,,Clear,120,2013-06-18 01:35:00
8:55 PM,77.0,62.6,61,30.00,10.0,East,4.6,-,N/A,,Clear,100,2013-06-18 01:55:00
9:15 PM,75.2,62.6,65,30.01,10.0,ESE,4.6,-,N/A,,Clear,110,2013-06-18 02:15:00
9:35 PM,75.2,62.6,65,30.02,10.0,Calm,Calm,-,N/A,,Clear,0,2013-06-18 02:35:00
9:55 PM,75.2,62.6,65,30.02,10.0,East,3.5,-,N/A,,Clear,80,2013-06-18 02:55:00
10:15 PM,73.4,62.6,69,30.02,10.0,ENE,4.6,-,N/A,,Clear,70,2013-06-18 03:15:00
10:35 PM,73.4,62.6,69,30.02,10.0,East,5.8,-,N/A,,Clear,100,2013-06-18 03:35:00
10:55 PM,73.4,62.6,69,30.02,10.0,ESE,6.9,-,N/A,,Clear,110,2013-06-18 03:55:00
11:15 PM,71.6,62.6,73,30.04,10.0,SE,6.9,-,N/A,,Clear,140,2013-06-18 04:15:00
11:35 PM,69.8,62.6,78,30.05,10.0,SSE,6.9,-,N/A,,Clear,150,2013-06-18 04:35:00
11:55 PM,69.8,62.6,78,30.07,10.0,South,9.2,-,N/A,,Clear,190,2013-06-18 04:55:00